KLEX Airport Diagram

We have created a template for each of the higher traffic airports in the vZID airspace. They include KCMH, KCRW, KCVG, KDAY, KIND, KLEX and KSDF. You wil find usefull information including the airport diagram, weather, and specific airport procedures.

KLEX Weather

[Source: ADDS]
METAR
KLEX 171254Z 22005KT 3SM BR CLR 01/M01 A3017 RMK AO2 SLP221 T00111011 $ =
KLEX 171121Z 1712/1812 24005KT 5SM BR SKC FM171500 28009KT P6SM SKC FM180000 34005KT P6SM SKC FM180800 04004KT 4SM BR SKC
TAF
KLEX 171121Z 1712/1812 24005KT 5SM BR SKC FM171500 28009KT P6SM SKC FM180000 34005KT P6SM SKC FM180800 04004KT 4SM BR SKC =

KLEX Operations

Calm wind runway at KLEX is Runway 22, up to and including 10kts.

Default scenery shows Runway 8/26, which crosses Runway 22. When taxiing to Runway 22, clearance to cross Runway 26 not required.

Updated scenery available at www.flightsim.com.

 

JSN Epic template designed by JoomlaShine.com